• In Norway
  • List of Countries
  • For 7 days
  • Water Temperature
  • Satellite Maps
  • Weather Map
  • Weather Widgets
  • user-avatar
    Login

    Hourly Weather Djelfa

    Today, 13 November, Tuesday

    Time Temperature Precipitation Wind Pressure Humidity
    00:00 +9°C° 0 mm 6 mps 668 mmHg 84%
    01:00 +10°C° 0 mm 6 mps 668 mmHg 85%
    02:00 +10°C° 0 mm 5 mps 667 mmHg 87%
    03:00 +10°C° 0 mm 5 mps 667 mmHg 89%
    04:00 +11°C° 0 mm 4 mps 667 mmHg 90%
    05:00 +11°C° 0 mm 4 mps 667 mmHg 91%
    06:00 +11°C° 0 mm 4 mps 668 mmHg 92%
    07:00 +10°C° 0.1 mm 5 mps 668 mmHg 89%
    08:00 +12°C° 0.1 mm 5 mps 668 mmHg 85%
    09:00 +11°C° 0.1 mm 6 mps 669 mmHg 82%
    10:00 +13°C° 0.1 mm 6 mps 669 mmHg 79%
    11:00 +13°C° 0.1 mm 6 mps 669 mmHg 76%
    12:00 +14°C° 0 mm 7 mps 669 mmHg 70%
    13:00 +14°C° 0 mm 7 mps 669 mmHg 68%
    14:00 +14°C° 0 mm 7 mps 668 mmHg 67%
    15:00 +14°C° 0 mm 7 mps 668 mmHg 65%
    16:00 +12°C° 0 mm 7 mps 668 mmHg 70%
    17:00 +13°C° 0 mm 6 mps 668 mmHg 75%
    18:00 +11°C° 0 mm 6 mps 668 mmHg 80%
    19:00 +11°C° 0 mm 6 mps 668 mmHg 82%
    20:00 +10°C° 0 mm 7 mps 668 mmHg 85%
    21:00 +10°C° 0 mm 7 mps 668 mmHg 87%
    22:00 +10°C° 0 mm 7 mps 668 mmHg 86%
    23:00 +10°C° 0 mm 7 mps 668 mmHg 85%

    Tomorrow, 14 November, Wednesday

    Time Temperature Precipitation Wind Pressure Humidity
    00:00 +10°C° 0 mm 7 mps 668 mmHg 84%
    01:00 +9°C° 0 mm 7 mps 668 mmHg 84%
    02:00 +9°C° 0 mm 7 mps 668 mmHg 85%
    03:00 +9°C° 0 mm 7 mps 667 mmHg 85%
    04:00 +9°C° 0 mm 6 mps 667 mmHg 87%
    05:00 +9°C° 0 mm 6 mps 667 mmHg 88%
    06:00 +9°C° 0 mm 6 mps 667 mmHg 89%
    07:00 +10°C° 0 mm 7 mps 667 mmHg 84%
    08:00 +11°C° 0 mm 8 mps 668 mmHg 79%
    09:00 +12°C° 0 mm 9 mps 668 mmHg 74%
    10:00 +12°C° 0 mm 9 mps 668 mmHg 71%
    11:00 +13°C° 0 mm 10 mps 667 mmHg 67%
    12:00 +13°C° 0 mm 10 mps 667 mmHg 64%
    13:00 +14°C° 0 mm 10 mps 667 mmHg 62%
    14:00 +14°C° 0 mm 11 mps 666 mmHg 61%
    15:00 +14°C° 0 mm 11 mps 665 mmHg 59%
    16:00 +13°C° 0 mm 11 mps 665 mmHg 65%
    17:00 +12°C° 0 mm 11 mps 665 mmHg 70%
    18:00 +11°C° 0 mm 11 mps 665 mmHg 76%
    19:00 +11°C° 0 mm 11 mps 665 mmHg 77%
    20:00 +11°C° 0 mm 10 mps 665 mmHg 79%
    21:00 +11°C° 0 mm 10 mps 665 mmHg 80%
    22:00 +9°C° 0 mm 10 mps 665 mmHg 82%
    23:00 +9°C° 0 mm 10 mps 665 mmHg 83%

    Day after tomorrow, 15 November, Thursday

    Time Temperature Precipitation Wind Pressure Humidity
    00:00 +9°C° 0 mm 10 mps 664 mmHg 85%
    01:00 +9°C° 0.2 mm 10 mps 664 mmHg 86%
    02:00 +9°C° 0.2 mm 10 mps 663 mmHg 87%
    03:00 +9°C° 0.2 mm 10 mps 663 mmHg 87%
    04:00 +8°C° 0.2 mm 10 mps 663 mmHg 88%
    05:00 +8°C° 0.2 mm 11 mps 662 mmHg 88%
    06:00 +8°C° 0.2 mm 11 mps 662 mmHg 88%
    07:00 +8°C° 0.3 mm 11 mps 662 mmHg 86%
    08:00 +9°C° 0.3 mm 11 mps 663 mmHg 83%
    09:00 +9°C° 0.3 mm 11 mps 663 mmHg 80%
    10:00 +9°C° 0.1 mm 10 mps 663 mmHg 79%
    11:00 +10°C° 0.1 mm 9 mps 663 mmHg 78%
    12:00 +11°C° 0.1 mm 8 mps 663 mmHg 76%
    13:00 +11°C° 0.1 mm 7 mps 662 mmHg 74%
    14:00 +11°C° 0.1 mm 6 mps 662 mmHg 71%
    15:00 +12°C° 0.1 mm 5 mps 662 mmHg 69%
    16:00 +12°C° 0.1 mm 4 mps 662 mmHg 71%
    17:00 +11°C° 0.1 mm 3 mps 662 mmHg 74%
    18:00 +11°C° 0.1 mm 3 mps 663 mmHg 76%
    19:00 +12°C° 0 mm 2 mps 663 mmHg 77%
    20:00 +10°C° 0 mm 2 mps 663 mmHg 78%
    21:00 +10°C° 0 mm 2 mps 663 mmHg 79%
    22:00 +9°C° 0 mm 2 mps 663 mmHg 80%
    23:00 +10°C° 0 mm 1 mps 663 mmHg 81%

    16 November, Friday

    Time Temperature Precipitation Wind Pressure Humidity
    00:00 +10°C° 0 mm 1 mps 663 mmHg 82%
    01:00 +9°C° 0 mm 1 mps 663 mmHg 83%
    02:00 +9°C° 0 mm 1 mps 662 mmHg 84%
    03:00 +9°C° 0 mm 1 mps 662 mmHg 84%
    04:00 +9°C° 0 mm 1 mps 662 mmHg 85%
    05:00 +8°C° 0 mm 1 mps 662 mmHg 86%
    06:00 +8°C° 0 mm 1 mps 662 mmHg 86%
    07:00 +10°C° 0 mm 1 mps 663 mmHg 80%
    08:00 +11°C° 0 mm 1 mps 663 mmHg 74%
    09:00 +12°C° 0 mm 2 mps 664 mmHg 67%
    10:00 +13°C° 0 mm 2 mps 664 mmHg 63%
    11:00 +14°C° 0 mm 2 mps 664 mmHg 58%
    12:00 +15°C° 0 mm 2 mps 664 mmHg 53%
    13:00 +15°C° 0 mm 2 mps 663 mmHg 52%
    14:00 +15°C° 0 mm 2 mps 663 mmHg 51%
    15:00 +16°C° 0 mm 2 mps 663 mmHg 49%
    16:00 +15°C° 0 mm 2 mps 663 mmHg 52%
    17:00 +15°C° 0 mm 2 mps 663 mmHg 54%
    18:00 +14°C° 0 mm 2 mps 662 mmHg 57%
    19:00 +14°C° 0 mm 2 mps 662 mmHg 60%
    20:00 +13°C° 0 mm 2 mps 663 mmHg 63%
    21:00 +13°C° 0 mm 2 mps 663 mmHg 67%
    22:00 +12°C° 0 mm 1 mps 662 mmHg 68%
    23:00 +12°C° 0 mm 1 mps 662 mmHg 70%

    17 November, Saturday

    Time Temperature Precipitation Wind Pressure Humidity
    00:00 +12°C° 0 mm 1 mps 662 mmHg 72%
    01:00 +11°C° 0.1 mm 1 mps 661 mmHg 72%
    02:00 +11°C° 0.1 mm 1 mps 661 mmHg 73%
    03:00 +10°C° 0.1 mm 0 mps 661 mmHg 73%
    04:00 +11°C° 0.3 mm 1 mps 660 mmHg 74%
    05:00 +11°C° 0.3 mm 1 mps 660 mmHg 75%
    06:00 +11°C° 0.3 mm 1 mps 660 mmHg 76%
    07:00 +11°C° 0.6 mm 1 mps 660 mmHg 74%
    08:00 +12°C° 0.6 mm 1 mps 661 mmHg 72%
    09:00 +12°C° 0.6 mm 2 mps 661 mmHg 70%
    10:00 +13°C° 0.3 mm 2 mps 661 mmHg 65%
    11:00 +13°C° 0.3 mm 3 mps 661 mmHg 60%
    12:00 +13°C° 0.3 mm 3 mps 661 mmHg 54%
    13:00 +14°C° 0.1 mm 4 mps 660 mmHg 53%
    14:00 +14°C° 0.1 mm 4 mps 660 mmHg 52%
    15:00 +14°C° 0.1 mm 4 mps 660 mmHg 51%
    16:00 +13°C° 0 mm 4 mps 660 mmHg 55%
    17:00 +12°C° 0 mm 4 mps 660 mmHg 59%
    18:00 +12°C° 0 mm 3 mps 660 mmHg 64%
    19:00 +11°C° 0 mm 3 mps 660 mmHg 68%
    20:00 +11°C° 0 mm 3 mps 660 mmHg 72%
    21:00 +10°C° 0 mm 3 mps 660 mmHg 76%
    22:00 +10°C° 0 mm 2 mps 660 mmHg 80%
    23:00 +9°C° 0 mm 2 mps 660 mmHg 84%

    18 November, Sunday

    Time Temperature Precipitation Wind Pressure Humidity
    00:00 +9°C° 0 mm 2 mps 660 mmHg 88%
    01:00 +9°C° 0 mm 1 mps 659 mmHg 89%
    02:00 +9°C° 0 mm 1 mps 659 mmHg 91%
    03:00 +8°C° 0 mm 0 mps 659 mmHg 93%
    04:00 +8°C° 0 mm 0 mps 659 mmHg 93%
    05:00 +7°C° 0 mm 0 mps 659 mmHg 93%
    06:00 +7°C° 0 mm 0 mps 659 mmHg 93%
    07:00 +9°C° 0 mm 1 mps 660 mmHg 87%
    08:00 +10°C° 0 mm 1 mps 660 mmHg 81%
    09:00 +10°C° 0 mm 2 mps 661 mmHg 75%
    10:00 +11°C° 0 mm 3 mps 661 mmHg 70%
    11:00 +12°C° 0 mm 3 mps 660 mmHg 64%
    12:00 +13°C° 0 mm 4 mps 660 mmHg 59%
    13:00 +13°C° 0 mm 4 mps 660 mmHg 58%
    14:00 +13°C° 0 mm 4 mps 660 mmHg 56%
    15:00 +13°C° 0 mm 5 mps 659 mmHg 54%
    16:00 +13°C° 0 mm 5 mps 659 mmHg 57%
    17:00 +12°C° 0 mm 4 mps 659 mmHg 59%
    18:00 +12°C° 0 mm 4 mps 659 mmHg 61%
    19:00 +10°C° 0 mm 5 mps 660 mmHg 62%
    20:00 +10°C° 0 mm 5 mps 660 mmHg 64%
    21:00 +10°C° 0 mm 6 mps 660 mmHg 66%
    22:00 +10°C° 0 mm 6 mps 659 mmHg 68%
    23:00 +9°C° 0 mm 5 mps 659 mmHg 69%
    Show more